| time (UTC) | temp F | wind direction | speed MPH | gust MPH | rain 1hr in | rain 24hr in | rain mn in | humidity % | barometer mb |
| 20260906081719 | 69 | 260 | 0.0 | 0.0 | 0.00 | 0.00 | 0.00 | 35 | 1014.4 |
| 20260906081219 | 69 | 243 | 0.0 | 0.0 | 0.00 | 0.00 | 0.00 | 36 | 1014.3 |
| 20260906080715 | 70 | 248 | 0.0 | 0.0 | 0.00 | 0.00 | 0.00 | 36 | 1014.1 |
| 20260906080212 | 70 | 240 | 0.0 | 0.0 | 0.00 | 0.00 | 0.00 | 35 | 1014.0 |
| 20260906075706 | 69 | 254 | 0.0 | 0.0 | 0.00 | 0.00 | 0.00 | 36 | 1014.1 |
| 20260906075201 | 70 | 246 | 0.0 | 0.0 | 0.00 | 0.00 | 0.00 | 37 | 1014.1 |
| 20260906074656 | 69 | 245 | 0.0 | 0.0 | 0.00 | 0.00 | 0.00 | 36 | 1014.3 |
| 20260906074155 | 69 | 272 | 0.0 | 0.0 | 0.00 | 0.00 | 0.00 | 36 | 1014.2 |
| 20260906073650 | 69 | 250 | 0.0 | 0.0 | 0.00 | 0.00 | 0.00 | 39 | 1014.3 |
| 20260906073145 | 69 | 246 | 0.0 | 0.0 | 0.00 | 0.00 | 0.00 | 37 | 1014.3 |
| 20260906072641 | 69 | 227 | 0.0 | 0.0 | 0.00 | 0.00 | 0.00 | 38 | 1014.2 |
| 20260906072136 | 69 | 220 | 0.0 | 0.0 | 0.00 | 0.00 | 0.00 | 39 | 1014.3 |
| 20260906071633 | 69 | 204 | 0.0 | 0.0 | 0.00 | 0.00 | 0.00 | 38 | 1014.4 |
| 20260906071132 | 70 | 243 | 0.0 | 0.0 | 0.00 | 0.00 | 0.00 | 36 | 1014.3 |
| 20260906070629 | 70 | 237 | 0.0 | 0.0 | 0.00 | 0.00 | 0.00 | 36 | 1014.1 |
| 20260906070125 | 71 | 254 | 0.0 | 0.0 | 0.00 | 0.00 | 0.00 | 36 | 1014.3 |
| 20260906065624 | 71 | 254 | 0.0 | 0.0 | 0.00 | 0.00 | 0.00 | 36 | 1014.2 |
| 20260906065119 | 71 | 257 | 0.0 | 0.0 | 0.00 | 0.00 | 0.00 | 37 | 1014.3 |
| 20260906064615 | 70 | 259 | 0.0 | 0.0 | 0.00 | 0.00 | 0.00 | 36 | 1014.1 |
| 20260906064110 | 70 | 247 | 0.0 | 0.0 | 0.00 | 0.00 | 0.00 | 37 | 1014.5 |
| 20260906063605 | 70 | 260 | 0.0 | 0.0 | 0.00 | 0.00 | 0.00 | 36 | 1014.3 |
| 20260906063101 | 70 | 241 | 0.0 | 0.0 | 0.00 | 0.00 | 0.00 | 37 | 1014.3 |
| 20260906062556 | 70 | 242 | 0.0 | 0.0 | 0.00 | 0.00 | 0.00 | 37 | 1014.3 |
| 20260906062055 | 71 | 262 | 0.0 | 0.0 | 0.00 | 0.00 | 0.00 | 37 | 1014.4 |
| 20260906061552 | 71 | 249 | 0.0 | 0.0 | 0.00 | 0.00 | 0.00 | 37 | 1014.3 |
| 20260906061051 | 71 | 260 | 0.0 | 0.0 | 0.00 | 0.00 | 0.00 | 37 | 1014.0 |
| 20260906060548 | 71 | 242 | 0.0 | 0.0 | 0.00 | 0.00 | 0.00 | 37 | 1014.2 |
| 20260906060045 | 71 | 275 | 0.0 | 0.0 | 0.00 | 0.00 | 0.00 | 37 | 1014.2 |
| 20260906055540 | 71 | 239 | 0.0 | 0.0 | 0.00 | 0.00 | 0.00 | 38 | 1014.5 |
| 20260906055036 | 71 | 238 | 0.0 | 0.0 | 0.00 | 0.00 | 0.00 | 37 | 1014.4 |
| 20260906054536 | 71 | 267 | 1.0 | 2.0 | 0.00 | 0.00 | 0.00 | 37 | 1014.3 |
| 20260906054031 | 72 | 259 | 0.0 | 1.0 | 0.00 | 0.00 | 0.00 | 37 | 1014.4 |
| 20260906053527 | 72 | 298 | 4.0 | 5.0 | 0.00 | 0.00 | 0.00 | 37 | 1014.5 |
| 20260906053023 | 72 | 323 | 3.0 | 5.0 | 0.00 | 0.00 | 0.00 | 37 | 1014.4 |
| 20260906052518 | 72 | 294 | 3.0 | 3.0 | 0.00 | 0.00 | 0.00 | 37 | 1014.3 |
| 20260906052015 | 72 | 355 | 3.0 | 3.0 | 0.00 | 0.00 | 0.00 | 37 | 1014.4 |
| 20260906051510 | 71 | 262 | 2.0 | 2.0 | 0.00 | 0.00 | 0.00 | 38 | 1014.4 |
| 20260906051006 | 72 | 244 | 0.0 | 0.0 | 0.00 | 0.00 | 0.00 | 38 | 1014.5 |
| 20260906050500 | 72 | 341 | 4.0 | 5.0 | 0.00 | 0.00 | 0.00 | 37 | 1014.3 |
| 20260906050000 | 73 | 356 | 4.0 | 6.0 | 0.00 | 0.00 | 0.00 | 37 | 1014.6 |
| 20260906045458 | 74 | 331 | 1.0 | 3.0 | 0.00 | 0.00 | 0.00 | 35 | 1014.3 |
| 20260906044955 | 75 | 281 | 2.0 | 2.0 | 0.00 | 0.00 | 0.00 | 34 | 1014.5 |
| 20260906044449 | 75 | 281 | 1.0 | 2.0 | 0.00 | 0.00 | 0.00 | 34 | 1014.4 |
| 20260906043945 | 75 | 193 | 9.0 | 11.0 | 0.00 | 0.00 | 0.00 | 35 | 1014.2 |
| 20260906043441 | 75 | 250 | 5.0 | 6.0 | 0.00 | 0.00 | 0.00 | 35 | 1014.3 |
| 20260906042937 | 75 | 228 | 11.0 | 11.0 | 0.00 | 0.00 | 0.00 | 35 | 1014.1 |
| 20260906042436 | 75 | 229 | 7.0 | 9.0 | 0.00 | 0.00 | 0.00 | 35 | 1014.1 |
| 20260906041931 | 75 | 244 | 9.0 | 10.0 | 0.00 | 0.00 | 0.00 | 35 | 1013.9 |
| 20260906041427 | 75 | 239 | 12.0 | 16.0 | 0.00 | 0.00 | 0.00 | 35 | 1014.2 |
| 20260906040926 | 75 | 228 | 10.0 | 14.0 | 0.00 | 0.00 | 0.00 | 34 | 1013.9 |
| 20260906040422 | 75 | 274 | 10.0 | 13.0 | 0.00 | 0.00 | 0.00 | 35 | 1014.0 |
| 20260906035916 | 75 | 239 | 12.0 | 15.0 | 0.00 | 0.00 | 0.00 | 35 | 1013.6 |
| 20260906035407 | 75 | 227 | 12.0 | 14.0 | 0.00 | 0.00 | 0.00 | 35 | 1013.8 |
| 20260906034902 | 75 | 227 | 11.0 | 14.0 | 0.00 | 0.00 | 0.00 | 35 | 1013.8 |
| 20260906034402 | 75 | 237 | 14.0 | 17.0 | 0.00 | 0.00 | 0.00 | 34 | 1013.9 |
| 20260906033858 | 75 | 247 | 14.0 | 15.0 | 0.00 | 0.00 | 0.00 | 34 | 1013.9 |
| 20260906033357 | 75 | 254 | 13.0 | 16.0 | 0.00 | 0.00 | 0.00 | 33 | 1013.2 |
| 20260906032853 | 76 | 242 | 9.0 | 13.0 | 0.00 | 0.00 | 0.00 | 31 | 1013.5 |
| 20260906032349 | 76 | 251 | 11.0 | 14.0 | 0.00 | 0.00 | 0.00 | 29 | 1013.3 |
| 20260906031844 | 76 | 229 | 11.0 | 11.0 | 0.00 | 0.00 | 0.00 | 26 | 1013.3 |
| 20260906031339 | 77 | 232 | 13.0 | 15.0 | 0.00 | 0.00 | 0.00 | 24 | 1013.2 |
| 20260906030839 | 77 | 239 | 17.0 | 18.0 | 0.00 | 0.00 | 0.00 | 22 | 1013.4 |
| 20260906030335 | 77 | 238 | 12.0 | 14.0 | 0.00 | 0.00 | 0.00 | 22 | 1013.3 |
| 20260906025829 | 77 | 248 | 13.0 | 15.0 | 0.00 | 0.00 | 0.00 | 26 | 1013.0 |
| 20260906025323 | 77 | 255 | 19.0 | 23.0 | 0.00 | 0.00 | 0.00 | 28 | 1013.2 |
| 20260906024822 | 77 | 226 | 21.0 | 25.0 | 0.00 | 0.00 | 0.00 | 28 | 1013.0 |
| 20260906024321 | 77 | 301 | 15.0 | 18.0 | 0.00 | 0.00 | 0.00 | 28 | 1013.1 |
| 20260906023817 | 77 | 237 | 20.0 | 25.0 | 0.00 | 0.00 | 0.00 | 28 | 1013.0 |
| 20260906023312 | 78 | 230 | 17.0 | 20.0 | 0.00 | 0.00 | 0.00 | 28 | 1012.9 |
| 20260906022808 | 78 | 247 | 16.0 | 23.0 | 0.00 | 0.00 | 0.00 | 28 | 1013.0 |
| 20260906022306 | 78 | 217 | 21.0 | 24.0 | 0.00 | 0.00 | 0.00 | 27 | 1013.2 |
| 20260906021759 | 78 | 251 | 17.0 | 22.0 | 0.00 | 0.00 | 0.00 | 25 | 1013.1 |
| 20260906021258 | 79 | 275 | 13.0 | 15.0 | 0.00 | 0.00 | 0.00 | 24 | 1012.9 |
| 20260906020753 | 79 | 240 | 18.0 | 20.0 | 0.00 | 0.00 | 0.00 | 23 | 1012.9 |
| 20260906020253 | 79 | 185 | 17.0 | 22.0 | 0.00 | 0.00 | 0.00 | 24 | 1012.9 |
| 20260906015752 | 80 | 247 | 12.0 | 14.0 | 0.00 | 0.00 | 0.00 | 24 | 1012.9 |
| 20260906015251 | 80 | 200 | 10.0 | 11.0 | 0.00 | 0.00 | 0.00 | 24 | 1013.0 |
| 20260906014746 | 80 | 233 | 14.0 | 16.0 | 0.00 | 0.00 | 0.00 | 23 | 1012.9 |
| 20260906014241 | 81 | 242 | 12.0 | 15.0 | 0.00 | 0.00 | 0.00 | 22 | 1012.9 |
| 20260906013738 | 81 | 242 | 16.0 | 23.0 | 0.00 | 0.00 | 0.00 | 21 | 1012.9 |
| 20260906013237 | 81 | 243 | 15.0 | 20.0 | 0.00 | 0.00 | 0.00 | 23 | 1012.9 |
| 20260906012733 | 81 | 252 | 9.0 | 10.0 | 0.00 | 0.00 | 0.00 | 22 | 1013.0 |
| 20260906012228 | 82 | 256 | 11.0 | 15.0 | 0.00 | 0.00 | 0.00 | 22 | 1013.0 |
| 20260906011723 | 82 | 263 | 10.0 | 13.0 | 0.00 | 0.00 | 0.00 | 23 | 1013.1 |
| 20260906011217 | 82 | 232 | 15.0 | 16.0 | 0.00 | 0.00 | 0.00 | 21 | 1013.1 |
| 20260906010713 | 82 | 251 | 12.0 | 14.0 | 0.00 | 0.00 | 0.00 | 22 | 1013.0 |
| 20260906010209 | 82 | 250 | 15.0 | 18.0 | 0.00 | 0.00 | 0.00 | 23 | 1013.2 |
| 20260906005709 | 82 | 244 | 17.0 | 21.0 | 0.00 | 0.00 | 0.00 | 23 | 1013.2 |
| 20260906005203 | 82 | 252 | 12.0 | 13.0 | 0.00 | 0.00 | 0.00 | 21 | 1012.9 |
| 20260906004702 | 82 | 249 | 18.0 | 22.0 | 0.00 | 0.00 | 0.00 | 20 | 1013.0 |
| 20260906004156 | 82 | 236 | 19.0 | 24.0 | 0.00 | 0.00 | 0.00 | 20 | 1012.9 |
| 20260906003652 | 83 | 208 | 17.0 | 20.0 | 0.00 | 0.00 | 0.00 | 20 | 1012.9 |
| 20260906003148 | 83 | 238 | 10.0 | 14.0 | 0.00 | 0.00 | 0.00 | 20 | 1012.9 |
| 20260906002648 | 83 | 228 | 18.0 | 22.0 | 0.00 | 0.00 | 0.00 | 20 | 1012.9 |
| 20260906002143 | 83 | 233 | 17.0 | 22.0 | 0.00 | 0.00 | 0.00 | 21 | 1013.0 |
| 20260906001638 | 84 | 197 | 18.0 | 21.0 | 0.00 | 0.00 | 0.00 | 21 | 1012.8 |
| 20260906001138 | 84 | 232 | 12.0 | 16.0 | 0.00 | 0.00 | 0.00 | 22 | 1012.7 |
| 20260906000634 | 83 | 282 | 10.0 | 13.0 | 0.00 | 0.00 | 0.00 | 21 | 1012.9 |
| 20260906000129 | 84 | 251 | 12.0 | 14.0 | 0.00 | 0.00 | 0.00 | 20 | 1013.1 |
| 20260905235627 | 84 | 204 | 11.0 | 14.0 | 0.00 | 0.00 | 0.00 | 20 | 1012.9 |
| 20260905235123 | 84 | 252 | 16.0 | 20.0 | 0.00 | 0.00 | 0.00 | 19 | 1013.0 |
| 20260905234618 | 84 | 242 | 20.0 | 24.0 | 0.00 | 0.00 | 0.00 | 19 | 1013.0 |
| 20260905234114 | 84 | 228 | 15.0 | 21.0 | 0.00 | 0.00 | 0.00 | 19 | 1012.9 |
| 20260905233614 | 84 | 245 | 10.0 | 13.0 | 0.00 | 0.00 | 0.00 | 20 | 1012.9 |
| 20260905233108 | 84 | 248 | 17.0 | 24.0 | 0.00 | 0.00 | 0.00 | 20 | 1013.0 |
| 20260905232604 | 85 | 233 | 11.0 | 15.0 | 0.00 | 0.00 | 0.00 | 19 | 1013.0 |
| 20260905232059 | 85 | 221 | 18.0 | 23.0 | 0.00 | 0.00 | 0.00 | 19 | 1012.7 |
| 20260905231554 | 84 | 229 | 11.0 | 14.0 | 0.00 | 0.00 | 0.00 | 19 | 1012.6 |
| 20260905231051 | 85 | 247 | 13.0 | 17.0 | 0.00 | 0.00 | 0.00 | 19 | 1012.9 |
| 20260905230550 | 84 | 258 | 9.0 | 11.0 | 0.00 | 0.00 | 0.00 | 18 | 1013.0 |
| 20260905230048 | 84 | 226 | 11.0 | 14.0 | 0.00 | 0.00 | 0.00 | 19 | 1013.1 |
| 20260905225543 | 84 | 202 | 15.0 | 20.0 | 0.00 | 0.00 | 0.00 | 18 | 1012.8 |
| 20260905225038 | 84 | 257 | 9.0 | 14.0 | 0.00 | 0.00 | 0.00 | 18 | 1012.8 |
| 20260905224532 | 84 | 249 | 13.0 | 15.0 | 0.00 | 0.00 | 0.00 | 20 | 1013.0 |
| 20260905224032 | 84 | 236 | 16.0 | 18.0 | 0.00 | 0.00 | 0.00 | 18 | 1013.2 |
| 20260905223530 | 85 | 248 | 14.0 | 16.0 | 0.00 | 0.00 | 0.00 | 19 | 1013.3 |
| 20260905223025 | 85 | 224 | 12.0 | 15.0 | 0.00 | 0.00 | 0.00 | 18 | 1013.2 |
| 20260905222525 | 85 | 248 | 10.0 | 13.0 | 0.00 | 0.00 | 0.00 | 19 | 1013.0 |
| 20260905222020 | 84 | 249 | 13.0 | 17.0 | 0.00 | 0.00 | 0.00 | 19 | 1013.0 |
| 20260905221517 | 85 | 240 | 13.0 | 15.0 | 0.00 | 0.00 | 0.00 | 19 | 1013.1 |
| 20260905221013 | 85 | 236 | 11.0 | 17.0 | 0.00 | 0.00 | 0.00 | 19 | 1013.4 |
| 20260905220509 | 85 | 258 | 10.0 | 11.0 | 0.00 | 0.00 | 0.00 | 20 | 1013.2 |
| 20260905220004 | 85 | 250 | 11.0 | 14.0 | 0.00 | 0.00 | 0.00 | 20 | 1013.4 |
| 20260905215458 | 85 | 235 | 11.0 | 13.0 | 0.00 | 0.00 | 0.00 | 20 | 1013.3 |
| 20260905214954 | 84 | 220 | 8.0 | 10.0 | 0.00 | 0.00 | 0.00 | 19 | 1013.5 |
| 20260905214450 | 84 | 244 | 15.0 | 16.0 | 0.00 | 0.00 | 0.00 | 20 | 1013.6 |
| 20260905213949 | 84 | 253 | 12.0 | 14.0 | 0.00 | 0.00 | 0.00 | 21 | 1013.9 |
| 20260905213440 | 84 | 211 | 9.0 | 11.0 | 0.00 | 0.00 | 0.00 | 21 | 1013.5 |
| 20260905212935 | 84 | 263 | 16.0 | 18.0 | 0.00 | 0.00 | 0.00 | 20 | 1013.6 |
| 20260905212430 | 84 | 250 | 11.0 | 11.0 | 0.00 | 0.00 | 0.00 | 22 | 1013.5 |
| 20260905211929 | 85 | 208 | 15.0 | 18.0 | 0.00 | 0.00 | 0.00 | 19 | 1013.8 |
| 20260905211425 | 83 | 196 | 6.0 | 9.0 | 0.00 | 0.00 | 0.00 | 21 | 1014.0 |
| 20260905210920 | 84 | 241 | 14.0 | 18.0 | 0.00 | 0.00 | 0.00 | 22 | 1013.8 |
| 20260905210415 | 84 | 227 | 14.0 | 17.0 | 0.00 | 0.00 | 0.00 | 20 | 1014.1 |
| 20260905205914 | 83 | 256 | 8.0 | 9.0 | 0.00 | 0.00 | 0.00 | 20 | 1014.1 |
| 20260905205409 | 84 | 234 | 11.0 | 14.0 | 0.00 | 0.00 | 0.00 | 20 | 1013.9 |
| 20260905204908 | 84 | 249 | 13.0 | 17.0 | 0.00 | 0.00 | 0.00 | 18 | 1014.3 |
| 20260905204404 | 84 | 234 | 8.0 | 11.0 | 0.00 | 0.00 | 0.00 | 19 | 1014.3 |
| 20260905203903 | 83 | 211 | 12.0 | 15.0 | 0.00 | 0.00 | 0.00 | 20 | 1014.3 |
| 20260905203353 | 83 | 236 | 15.0 | 18.0 | 0.00 | 0.00 | 0.00 | 20 | 1014.2 |
| 20260905202848 | 84 | 262 | 11.0 | 18.0 | 0.00 | 0.00 | 0.00 | 19 | 1014.2 |
| 20260905202343 | 83 | 168 | 15.0 | 17.0 | 0.00 | 0.00 | 0.00 | 19 | 1014.3 |
| 20260905201839 | 83 | 220 | 18.0 | 22.0 | 0.00 | 0.00 | 0.00 | 19 | 1014.4 |
| 20260905201334 | 84 | 171 | 11.0 | 13.0 | 0.00 | 0.00 | 0.00 | 20 | 1014.4 |
| 20260905200834 | 83 | 241 | 18.0 | 21.0 | 0.00 | 0.00 | 0.00 | 18 | 1014.3 |
| 20260905200331 | 83 | 275 | 8.0 | 13.0 | 0.00 | 0.00 | 0.00 | 19 | 1014.4 |
| 20260905195828 | 83 | 248 | 18.0 | 20.0 | 0.00 | 0.00 | 0.00 | 20 | 1014.2 |
| 20260905195323 | 82 | 233 | 15.0 | 17.0 | 0.00 | 0.00 | 0.00 | 22 | 1014.5 |
| 20260905194820 | 83 | 272 | 5.0 | 7.0 | 0.00 | 0.00 | 0.00 | 21 | 1014.3 |
| 20260905194319 | 82 | 221 | 8.0 | 9.0 | 0.00 | 0.00 | 0.00 | 19 | 1014.2 |
| 20260905193818 | 83 | 245 | 12.0 | 20.0 | 0.00 | 0.00 | 0.00 | 20 | 1014.5 |
| 20260905193313 | 82 | 235 | 5.0 | 7.0 | 0.00 | 0.00 | 0.00 | 22 | 1014.5 |
| 20260905192808 | 82 | 224 | 13.0 | 17.0 | 0.00 | 0.00 | 0.00 | 23 | 1014.5 |
| 20260905192306 | 82 | 239 | 7.0 | 9.0 | 0.00 | 0.00 | 0.00 | 23 | 1014.8 |
| 20260905191804 | 82 | 235 | 17.0 | 21.0 | 0.00 | 0.00 | 0.00 | 23 | 1014.8 |
| 20260905191303 | 82 | 238 | 11.0 | 13.0 | 0.00 | 0.00 | 0.00 | 23 | 1014.7 |
| 20260905190801 | 82 | 248 | 14.0 | 17.0 | 0.00 | 0.00 | 0.00 | 23 | 1014.9 |
| 20260905190300 | 81 | 220 | 10.0 | 13.0 | 0.00 | 0.00 | 0.00 | 23 | 1014.8 |
| 20260905185800 | 81 | 213 | 13.0 | 16.0 | 0.00 | 0.00 | 0.00 | 22 | 1015.0 |
| 20260905185255 | 81 | 234 | 13.0 | 17.0 | 0.00 | 0.00 | 0.00 | 23 | 1015.0 |
| 20260905184754 | 82 | 260 | 12.0 | 13.0 | 0.00 | 0.00 | 0.00 | 23 | 1015.2 |
| 20260905184247 | 81 | 229 | 12.0 | 16.0 | 0.00 | 0.00 | 0.00 | 23 | 1015.0 |
| 20260905183741 | 81 | 221 | 10.0 | 11.0 | 0.00 | 0.00 | 0.00 | 24 | 1015.0 |
| 20260905183237 | 81 | 250 | 9.0 | 10.0 | 0.00 | 0.00 | 0.00 | 24 | 1015.0 |
| 20260905182737 | 81 | 264 | 7.0 | 7.0 | 0.00 | 0.00 | 0.00 | 23 | 1014.9 |
| 20260905182236 | 80 | 221 | 14.0 | 17.0 | 0.00 | 0.00 | 0.00 | 23 | 1014.9 |
| 20260905181731 | 81 | 248 | 8.0 | 9.0 | 0.00 | 0.00 | 0.00 | 23 | 1014.9 |
| 20260905181230 | 80 | 227 | 7.0 | 8.0 | 0.00 | 0.00 | 0.00 | 24 | 1014.8 |
| 20260905180726 | 80 | 241 | 12.0 | 14.0 | 0.00 | 0.00 | 0.00 | 24 | 1015.0 |
| 20260905180221 | 80 | 261 | 6.0 | 8.0 | 0.00 | 0.00 | 0.00 | 24 | 1015.2 |
| 20260905175721 | 81 | 228 | 9.0 | 11.0 | 0.00 | 0.00 | 0.00 | 24 | 1015.3 |
| 20260905175216 | 80 | 227 | 11.0 | 14.0 | 0.00 | 0.00 | 0.00 | 24 | 1014.9 |
| 20260905174711 | 81 | 203 | 8.0 | 10.0 | 0.00 | 0.00 | 0.00 | 24 | 1015.0 |
| 20260905174206 | 80 | 176 | 9.0 | 10.0 | 0.00 | 0.00 | 0.00 | 24 | 1015.2 |
| 20260905173702 | 80 | 207 | 3.0 | 3.0 | 0.00 | 0.00 | 0.00 | 27 | 1015.3 |
| 20260905173158 | 79 | 198 | 2.0 | 2.0 | 0.00 | 0.00 | 0.00 | 28 | 1015.2 |
| 20260905172657 | 78 | 224 | 2.0 | 3.0 | 0.00 | 0.00 | 0.00 | 27 | 1015.2 |
| 20260905172151 | 79 | 188 | 3.0 | 5.0 | 0.00 | 0.00 | 0.00 | 27 | 1014.9 |
| 20260905171647 | 78 | 138 | 5.0 | 6.0 | 0.00 | 0.00 | 0.00 | 27 | 1015.0 |
| 20260905171143 | 78 | 70 | 3.0 | 5.0 | 0.00 | 0.00 | 0.00 | 29 | 1014.8 |
| 20260905170641 | 77 | 183 | 4.0 | 5.0 | 0.00 | 0.00 | 0.00 | 28 | 1014.9 |
| 20260905170135 | 78 | 112 | 4.0 | 5.0 | 0.00 | 0.00 | 0.00 | 27 | 1015.0 |
| 20260905165635 | 78 | 179 | 3.0 | 5.0 | 0.00 | 0.00 | 0.00 | 27 | 1015.2 |
| 20260905165130 | 78 | 133 | 2.0 | 2.0 | 0.00 | 0.00 | 0.00 | 28 | 1014.9 |
| 20260905164625 | 77 | 157 | 3.0 | 3.0 | 0.00 | 0.00 | 0.00 | 28 | 1014.7 |
| 20260905164124 | 76 | 69 | 1.0 | 1.0 | 0.00 | 0.00 | 0.00 | 28 | 1015.0 |
| 20260905163621 | 77 | 146 | 1.0 | 1.0 | 0.00 | 0.00 | 0.00 | 27 | 1014.8 |
| 20260905163117 | 76 | 226 | 0.0 | 1.0 | 0.00 | 0.00 | 0.00 | 28 | 1014.8 |
| 20260905162613 | 75 | 113 | 1.0 | 2.0 | 0.00 | 0.00 | 0.00 | 28 | 1014.8 |
| 20260905162112 | 75 | 274 | 3.0 | 3.0 | 0.00 | 0.00 | 0.00 | 29 | 1014.9 |
| 20260905161612 | 75 | 135 | 1.0 | 1.0 | 0.00 | 0.00 | 0.00 | 30 | 1014.6 |
| 20260905161109 | 73 | 155 | 0.0 | 0.0 | 0.00 | 0.00 | 0.00 | 30 | 1014.8 |
| 20260905160609 | 74 | 291 | 1.0 | 1.0 | 0.00 | 0.00 | 0.00 | 30 | 1014.7 |
| 20260905155557 | 74 | 240 | 0.0 | 0.0 | 0.00 | 0.00 | 0.00 | 31 | 1014.9 |
| 20260905155056 | 73 | 235 | 1.0 | 2.0 | 0.00 | 0.00 | 0.00 | 32 | 1014.8 |
| 20260905154551 | 74 | 231 | 0.0 | 0.0 | 0.00 | 0.00 | 0.00 | 33 | 1014.8 |
| 20260905154046 | 71 | 228 | 0.0 | 0.0 | 0.00 | 0.00 | 0.00 | 34 | 1014.7 |
| 20260905153537 | 70 | 231 | 0.0 | 0.0 | 0.00 | 0.00 | 0.00 | 36 | 1014.9 |
| 20260905153036 | 69 | 230 | 0.0 | 0.0 | 0.00 | 0.00 | 0.00 | 39 | 1014.9 |
| 20260905152531 | 68 | 254 | 0.0 | 0.0 | 0.00 | 0.00 | 0.00 | 40 | 1014.8 |
| 20260905152027 | 68 | 256 | 1.0 | 1.0 | 0.00 | 0.00 | 0.00 | 39 | 1014.6 |
| 20260905151521 | 69 | 241 | 0.0 | 0.0 | 0.00 | 0.00 | 0.00 | 39 | 1014.7 |
| 20260905151016 | 68 | 203 | 0.0 | 0.0 | 0.00 | 0.00 | 0.00 | 41 | 1014.8 |
| 20260905150511 | 67 | 55 | 0.0 | 0.0 | 0.00 | 0.00 | 0.00 | 43 | 1014.7 |
| 20260905150009 | 66 | 163 | 0.0 | 1.0 | 0.00 | 0.00 | 0.00 | 43 | 1014.4 |
| 20260905145503 | 67 | 236 | 0.0 | 0.0 | 0.00 | 0.00 | 0.00 | 41 | 1014.5 |
| 20260905145003 | 65 | 329 | 0.0 | 0.0 | 0.00 | 0.00 | 0.00 | 43 | 1014.4 |
| 20260905144458 | 65 | 226 | 1.0 | 1.0 | 0.00 | 0.00 | 0.00 | 44 | 1014.6 |
| 20260905143957 | 65 | 177 | 0.0 | 0.0 | 0.00 | 0.00 | 0.00 | 43 | 1014.4 |
| 20260905143456 | 65 | 265 | 1.0 | 1.0 | 0.00 | 0.00 | 0.00 | 42 | 1014.6 |
| 20260905142951 | 65 | 257 | 0.0 | 0.0 | 0.00 | 0.00 | 0.00 | 42 | 1014.7 |
| 20260905142449 | 65 | 304 | 2.0 | 2.0 | 0.00 | 0.00 | 0.00 | 41 | 1014.4 |
| 20260905141945 | 64 | 241 | 0.0 | 0.0 | 0.00 | 0.00 | 0.00 | 42 | 1014.3 |
| 20260905141440 | 63 | 250 | 0.0 | 0.0 | 0.00 | 0.00 | 0.00 | 44 | 1014.1 |
| 20260905140936 | 63 | 246 | 0.0 | 0.0 | 0.00 | 0.00 | 0.00 | 44 | 1014.1 |
| 20260905140431 | 64 | 262 | 0.0 | 1.0 | 0.00 | 0.00 | 0.00 | 43 | 1014.1 |
| 20260905135930 | 64 | 230 | 4.0 | 5.0 | 0.00 | 0.00 | 0.00 | 42 | 1014.0 |
| 20260905135426 | 63 | 250 | 3.0 | 3.0 | 0.00 | 0.00 | 0.00 | 43 | 1014.1 |
| 20260905134921 | 63 | 260 | 4.0 | 5.0 | 0.00 | 0.00 | 0.00 | 43 | 1014.0 |
| 20260905134420 | 63 | 260 | 4.0 | 5.0 | 0.00 | 0.00 | 0.00 | 45 | 1013.8 |
| 20260905133915 | 62 | 255 | 5.0 | 6.0 | 0.00 | 0.00 | 0.00 | 45 | 1013.6 |
| 20260905133415 | 62 | 265 | 5.0 | 6.0 | 0.00 | 0.00 | 0.00 | 46 | 1013.6 |
| 20260905132914 | 63 | 254 | 4.0 | 5.0 | 0.00 | 0.00 | 0.00 | 46 | 1014.0 |
| 20260905132410 | 62 | 247 | 4.0 | 5.0 | 0.00 | 0.00 | 0.00 | 47 | 1013.9 |
| 20260905131904 | 62 | 266 | 5.0 | 5.0 | 0.00 | 0.00 | 0.00 | 48 | 1013.6 |
| 20260905131400 | 61 | 257 | 2.0 | 3.0 | 0.00 | 0.00 | 0.00 | 51 | 1013.6 |
| 20260905130855 | 61 | 227 | 1.0 | 1.0 | 0.00 | 0.00 | 0.00 | 52 | 1013.4 |
| 20260905130354 | 61 | 249 | 1.0 | 1.0 | 0.00 | 0.00 | 0.00 | 52 | 1013.4 |
| 20260905125849 | 62 | 248 | 3.0 | 3.0 | 0.00 | 0.00 | 0.00 | 51 | 1013.6 |
| 20260905125344 | 62 | 260 | 3.0 | 3.0 | 0.00 | 0.00 | 0.00 | 51 | 1013.4 |
| 20260905124840 | 62 | 246 | 3.0 | 3.0 | 0.00 | 0.00 | 0.00 | 52 | 1013.8 |
| 20260905124336 | 62 | 238 | 0.0 | 0.0 | 0.00 | 0.00 | 0.00 | 53 | 1013.9 |
| 20260905123836 | 62 | 256 | 0.0 | 0.0 | 0.00 | 0.00 | 0.00 | 52 | 1013.6 |
| 20260905123333 | 62 | 247 | 0.0 | 0.0 | 0.00 | 0.00 | 0.00 | 52 | 1013.4 |
| 20260905122833 | 62 | 222 | 0.0 | 0.0 | 0.00 | 0.00 | 0.00 | 53 | 1013.6 |
| 20260905122332 | 62 | 246 | 3.0 | 3.0 | 0.00 | 0.00 | 0.00 | 53 | 1013.5 |
| 20260905121827 | 62 | 263 | 3.0 | 3.0 | 0.00 | 0.00 | 0.00 | 53 | 1013.6 |
| 20260905121324 | 62 | 270 | 5.0 | 6.0 | 0.00 | 0.00 | 0.00 | 53 | 1013.4 |
| 20260905120823 | 63 | 259 | 2.0 | 2.0 | 0.00 | 0.00 | 0.00 | 52 | 1013.4 |
| 20260905120317 | 62 | 237 | 7.0 | 9.0 | 0.00 | 0.00 | 0.00 | 52 | 1013.6 |
| 20260905115812 | 62 | 264 | 4.0 | 5.0 | 0.00 | 0.00 | 0.00 | 54 | 1013.6 |
| 20260905115312 | 63 | 288 | 3.0 | 5.0 | 0.00 | 0.00 | 0.00 | 53 | 1013.5 |
| 20260905114812 | 62 | 284 | 5.0 | 6.0 | 0.00 | 0.00 | 0.00 | 53 | 1013.5 |
| 20260905114311 | 62 | 230 | 5.0 | 5.0 | 0.00 | 0.00 | 0.00 | 53 | 1013.4 |
| 20260905113810 | 62 | 265 | 3.0 | 3.0 | 0.00 | 0.00 | 0.00 | 53 | 1013.8 |
| 20260905113306 | 62 | 326 | 3.0 | 3.0 | 0.00 | 0.00 | 0.00 | 54 | 1013.8 |
| 20260905112801 | 62 | 273 | 4.0 | 5.0 | 0.00 | 0.00 | 0.00 | 56 | 1013.6 |
| 20260905112256 | 61 | 249 | 3.0 | 6.0 | 0.00 | 0.00 | 0.00 | 56 | 1013.9 |
| 20260905111750 | 61 | 265 | 1.0 | 1.0 | 0.00 | 0.00 | 0.00 | 55 | 1013.8 |
| 20260905111245 | 61 | 227 | 2.0 | 2.0 | 0.00 | 0.00 | 0.00 | 55 | 1013.9 |
| 20260905110745 | 62 | 253 | 3.0 | 3.0 | 0.00 | 0.00 | 0.00 | 53 | 1013.6 |
| 20260905110238 | 62 | 255 | 2.0 | 2.0 | 0.00 | 0.00 | 0.00 | 53 | 1013.6 |
| 20260905105734 | 62 | 264 | 1.0 | 1.0 | 0.00 | 0.00 | 0.00 | 52 | 1013.8 |
| 20260905105233 | 62 | 285 | 5.0 | 6.0 | 0.00 | 0.00 | 0.00 | 52 | 1013.5 |
| 20260905104728 | 62 | 310 | 3.0 | 5.0 | 0.00 | 0.00 | 0.00 | 52 | 1013.8 |
| 20260905104224 | 62 | 250 | 3.0 | 3.0 | 0.00 | 0.00 | 0.00 | 52 | 1013.6 |
| 20260905103719 | 62 | 255 | 3.0 | 3.0 | 0.00 | 0.00 | 0.00 | 52 | 1013.8 |
| 20260905103215 | 62 | 275 | 4.0 | 6.0 | 0.00 | 0.00 | 0.00 | 53 | 1013.5 |
| 20260905102711 | 61 | 287 | 3.0 | 3.0 | 0.00 | 0.00 | 0.00 | 55 | 1013.6 |
| 20260905102207 | 61 | 287 | 3.0 | 3.0 | 0.00 | 0.00 | 0.00 | 56 | 1013.8 |
| 20260905101706 | 61 | 257 | 3.0 | 3.0 | 0.00 | 0.00 | 0.00 | 56 | 1013.6 |
| 20260905101204 | 61 | 258 | 2.0 | 2.0 | 0.00 | 0.00 | 0.00 | 54 | 1013.5 |
| 20260905100701 | 60 | 272 | 4.0 | 5.0 | 0.00 | 0.00 | 0.00 | 55 | 1013.6 |
| 20260905100155 | 60 | 233 | 3.0 | 3.0 | 0.00 | 0.00 | 0.00 | 55 | 1013.3 |
| 20260905095654 | 60 | 246 | 3.0 | 3.0 | 0.00 | 0.00 | 0.00 | 56 | 1013.6 |
| 20260905095149 | 61 | 268 | 4.0 | 5.0 | 0.00 | 0.00 | 0.00 | 54 | 1013.6 |
| 20260905094644 | 61 | 277 | 3.0 | 3.0 | 0.00 | 0.00 | 0.00 | 54 | 1013.9 |
| 20260905094143 | 60 | 304 | 2.0 | 2.0 | 0.00 | 0.00 | 0.00 | 55 | 1013.8 |
| 20260905093638 | 60 | 256 | 2.0 | 2.0 | 0.00 | 0.00 | 0.00 | 55 | 1013.6 |
| 20260905093134 | 60 | 273 | 2.0 | 2.0 | 0.00 | 0.00 | 0.00 | 55 | 1013.8 |
| 20260905092629 | 60 | 255 | 2.0 | 2.0 | 0.00 | 0.00 | 0.00 | 54 | 1013.6 |
| 20260905092125 | 60 | 298 | 2.0 | 3.0 | 0.00 | 0.00 | 0.00 | 54 | 1013.9 |
| 20260905091623 | 61 | 259 | 1.0 | 2.0 | 0.00 | 0.00 | 0.00 | 55 | 1014.0 |
| 20260905091118 | 61 | 333 | 4.0 | 5.0 | 0.00 | 0.00 | 0.00 | 54 | 1013.8 |
| 20260905090618 | 61 | 337 | 4.0 | 5.0 | 0.00 | 0.00 | 0.00 | 55 | 1013.9 |
| 20260905090109 | 60 | 258 | 2.0 | 3.0 | 0.00 | 0.00 | 0.00 | 55 | 1013.9 |
| 20260905085606 | 61 | 271 | 2.0 | 2.0 | 0.00 | 0.00 | 0.00 | 55 | 1013.8 |
| 20260905085103 | 61 | 267 | 3.0 | 3.0 | 0.00 | 0.00 | 0.00 | 54 | 1014.0 |
| 20260905084601 | 61 | 262 | 2.0 | 2.0 | 0.00 | 0.00 | 0.00 | 54 | 1014.0 |
| 20260905084057 | 61 | 241 | 3.0 | 3.0 | 0.00 | 0.00 | 0.00 | 56 | 1014.2 |
| 20260905083551 | 61 | 254 | 2.0 | 2.0 | 0.00 | 0.00 | 0.00 | 56 | 1014.2 |
| 20260905083048 | 61 | 253 | 2.0 | 2.0 | 0.00 | 0.00 | 0.00 | 58 | 1014.0 |
| 20260905082543 | 61 | 262 | 2.0 | 2.0 | 0.00 | 0.00 | 0.00 | 57 | 1014.2 |
| 20260905082039 | 61 | 347 | 3.0 | 3.0 | 0.00 | 0.00 | 0.00 | 58 | 1014.2 |